Location: Newark
(47.5500°N, 8.6167°E)
Time: 18:44:28
(UTC+00:00)

Envisat - Pass Details

Date: 02 February 2020
Orbit: 764 x 766 km, 98.1° (Epoch: 17 February)

Event Time Altitude Azimuth Distance (km) Brightness Sun altitude
Rises 04:34:45 0° 32° (NNE) 3,242 6.7 -23.2°
Reaches altitude 10° 04:38:44 10° 64° (ENE) 2,308 6.3 -22.6°
Maximum altitude 04:40:36 12° 86° (E) 2,173 6.4 -22.2°
Drops below altitude 10° 04:42:28 10° 107° (ESE) 2,301 6.5 -21.9°
Sets 04:46:25 0° 139° (SE) 3,220 6.9 -21.3°
